• In Hungary
  • List of Countries
  • For 7 days
  • Water Temperature
  • Satellite Maps
  • Weather Map
  • News
  • Weather Widgets
  • user-avatar
    Login

    Hourly Weather Bokson

    Today, 21 February, Wednesday

    Time Temperature Precipitation Wind Pressure Humidity
    00:00 -29°C° 0 mm 3 mps 587 mmHg 89%
    01:00 -29°C° 0 mm 3 mps 587 mmHg 90%
    02:00 -29°C° 0 mm 3 mps 587 mmHg 90%
    03:00 -29°C° 0 mm 3 mps 587 mmHg 90%
    04:00 -29°C° 0 mm 3 mps 586 mmHg 90%
    05:00 -29°C° 0 mm 3 mps 586 mmHg 90%
    06:00 -30°C° 0 mm 3 mps 586 mmHg 90%
    07:00 -30°C° 0 mm 3 mps 586 mmHg 90%
    08:00 -27°C° 0 mm 3 mps 587 mmHg 89%
    09:00 -25°C° 0 mm 3 mps 587 mmHg 87%
    10:00 -24°C° 0 mm 3 mps 587 mmHg 86%
    11:00 -23°C° 0 mm 4 mps 587 mmHg 83%
    12:00 -22°C° 0 mm 5 mps 587 mmHg 80%
    13:00 -21°C° 0 mm 5 mps 587 mmHg 77%
    14:00 -21°C° 0 mm 5 mps 587 mmHg 78%
    15:00 -21°C° 0 mm 5 mps 586 mmHg 79%
    16:00 -21°C° 0 mm 5 mps 586 mmHg 80%
    17:00 -22°C° 0 mm 4 mps 585 mmHg 84%
    18:00 -23°C° 0 mm 3 mps 585 mmHg 87%
    19:00 -24°C° 0 mm 3 mps 584 mmHg 91%
    20:00 -24°C° 0.1 mm 3 mps 584 mmHg 91%
    21:00 -25°C° 0.1 mm 3 mps 584 mmHg 91%
    22:00 -25°C° 0.1 mm 3 mps 584 mmHg 92%
    23:00 -25°C° 0.1 mm 3 mps 584 mmHg 92%

    Tomorrow, 22 February, Thursday

    Time Temperature Precipitation Wind Pressure Humidity
    00:00 -24°C° 0.1 mm 2 mps 584 mmHg 92%
    01:00 -24°C° 0.1 mm 2 mps 583 mmHg 91%
    02:00 -24°C° 0.1 mm 2 mps 583 mmHg 91%
    03:00 -24°C° 0.1 mm 2 mps 583 mmHg 92%
    04:00 -25°C° 0.1 mm 2 mps 583 mmHg 92%
    05:00 -25°C° 0.1 mm 2 mps 583 mmHg 92%
    06:00 -25°C° 0.1 mm 2 mps 583 mmHg 92%
    07:00 -25°C° 0.1 mm 2 mps 582 mmHg 93%
    08:00 -23°C° 0 mm 2 mps 583 mmHg 91%
    09:00 -21°C° 0 mm 2 mps 583 mmHg 89%
    10:00 -20°C° 0 mm 2 mps 584 mmHg 88%
    11:00 -19°C° 0 mm 2 mps 584 mmHg 84%
    12:00 -18°C° 0 mm 2 mps 584 mmHg 80%
    13:00 -17°C° 0 mm 3 mps 584 mmHg 76%
    14:00 -16°C° 0.1 mm 2 mps 584 mmHg 77%
    15:00 -16°C° 0.1 mm 2 mps 584 mmHg 79%
    16:00 -16°C° 0.1 mm 2 mps 583 mmHg 80%
    17:00 -18°C° 0 mm 2 mps 583 mmHg 85%
    18:00 -18°C° 0 mm 1 mps 582 mmHg 89%
    19:00 -20°C° 0 mm 1 mps 582 mmHg 94%
    20:00 -20°C° 0 mm 1 mps 582 mmHg 94%
    21:00 -20°C° 0 mm 1 mps 583 mmHg 93%
    22:00 -19°C° 0 mm 1 mps 583 mmHg 92%
    23:00 -19°C° 0.1 mm 1 mps 583 mmHg 92%

    Day after tomorrow, 23 February, Friday

    Time Temperature Precipitation Wind Pressure Humidity
    00:00 -19°C° 0.1 mm 1 mps 583 mmHg 92%
    01:00 -20°C° 0.1 mm 2 mps 584 mmHg 91%
    02:00 -20°C° 0.1 mm 2 mps 584 mmHg 91%
    03:00 -20°C° 0.1 mm 2 mps 584 mmHg 91%
    04:00 -20°C° 0.1 mm 2 mps 584 mmHg 91%
    05:00 -20°C° 0.1 mm 2 mps 584 mmHg 91%
    06:00 -20°C° 0.1 mm 2 mps 584 mmHg 91%
    07:00 -19°C° 0.1 mm 2 mps 584 mmHg 91%
    08:00 -18°C° 0 mm 2 mps 585 mmHg 88%
    09:00 -18°C° 0 mm 3 mps 586 mmHg 86%
    10:00 -17°C° 0 mm 3 mps 587 mmHg 84%
    11:00 -17°C° 0 mm 3 mps 587 mmHg 79%
    12:00 -16°C° 0 mm 3 mps 587 mmHg 75%
    13:00 -17°C° 0 mm 4 mps 587 mmHg 71%
    14:00 -16°C° 0 mm 3 mps 587 mmHg 72%
    15:00 -17°C° 0 mm 3 mps 587 mmHg 73%
    16:00 -17°C° 0 mm 3 mps 586 mmHg 74%
    17:00 -19°C° 0 mm 2 mps 586 mmHg 76%
    18:00 -21°C° 0 mm 2 mps 585 mmHg 78%
    19:00 -24°C° 0 mm 2 mps 585 mmHg 79%
    20:00 -24°C° 0 mm 2 mps 585 mmHg 80%
    21:00 -24°C° 0 mm 2 mps 585 mmHg 80%
    22:00 -25°C° 0 mm 2 mps 585 mmHg 81%
    23:00 -24°C° 0 mm 2 mps 585 mmHg 82%

    24 February, Saturday

    Time Temperature Precipitation Wind Pressure Humidity
    00:00 -24°C° 0 mm 2 mps 585 mmHg 84%
    01:00 -24°C° 0 mm 2 mps 585 mmHg 85%
    02:00 -24°C° 0 mm 2 mps 585 mmHg 86%
    03:00 -24°C° 0 mm 2 mps 585 mmHg 87%
    04:00 -25°C° 0 mm 3 mps 585 mmHg 87%
    05:00 -25°C° 0 mm 3 mps 585 mmHg 87%
    06:00 -25°C° 0 mm 3 mps 585 mmHg 87%
    07:00 -25°C° 0 mm 3 mps 585 mmHg 87%
    08:00 -23°C° 0 mm 3 mps 586 mmHg 86%
    09:00 -21°C° 0 mm 3 mps 586 mmHg 85%
    10:00 -19°C° 0 mm 3 mps 587 mmHg 84%
    11:00 -17°C° 0 mm 3 mps 587 mmHg 81%
    12:00 -16°C° 0 mm 3 mps 587 mmHg 78%
    13:00 -15°C° 0 mm 3 mps 587 mmHg 75%
    14:00 -15°C° 0 mm 3 mps 586 mmHg 76%
    15:00 -15°C° 0 mm 3 mps 586 mmHg 78%
    16:00 -15°C° 0 mm 3 mps 586 mmHg 79%
    17:00 -17°C° 0 mm 3 mps 585 mmHg 81%
    18:00 -19°C° 0 mm 3 mps 584 mmHg 83%
    19:00 -21°C° 0 mm 3 mps 584 mmHg 85%
    20:00 -22°C° 0 mm 3 mps 584 mmHg 86%
    21:00 -22°C° 0 mm 3 mps 584 mmHg 86%
    22:00 -22°C° 0 mm 3 mps 584 mmHg 86%
    23:00 -21°C° 0 mm 2 mps 583 mmHg 86%

    25 February, Sunday

    Time Temperature Precipitation Wind Pressure Humidity
    00:00 -21°C° 0 mm 2 mps 583 mmHg 86%
    01:00 -23°C° 0 mm 2 mps 583 mmHg 87%
    02:00 -21°C° 0 mm 2 mps 583 mmHg 87%
    03:00 -21°C° 0 mm 2 mps 582 mmHg 87%
    04:00 -21°C° 0 mm 2 mps 582 mmHg 87%
    05:00 -21°C° 0.1 mm 2 mps 583 mmHg 88%
    06:00 -20°C° 0.1 mm 2 mps 583 mmHg 89%
    07:00 -17°C° 0.1 mm 1 mps 583 mmHg 90%
    08:00 -18°C° 0.1 mm 2 mps 584 mmHg 90%
    09:00 -17°C° 0.1 mm 2 mps 584 mmHg 90%
    10:00 -16°C° 0.1 mm 2 mps 585 mmHg 91%
    11:00 -17°C° 0.1 mm 3 mps 585 mmHg 86%
    12:00 -19°C° 0.1 mm 5 mps 585 mmHg 81%
    13:00 -18°C° 0.1 mm 6 mps 585 mmHg 76%
    14:00 -20°C° 0.1 mm 7 mps 586 mmHg 76%
    15:00 -21°C° 0.1 mm 7 mps 586 mmHg 76%
    16:00 -22°C° 0.1 mm 8 mps 586 mmHg 76%
    17:00 -23°C° 0 mm 6 mps 586 mmHg 80%
    18:00 -25°C° 0 mm 5 mps 585 mmHg 84%
    19:00 -25°C° 0 mm 3 mps 585 mmHg 88%
    20:00 -27°C° 0 mm 3 mps 585 mmHg 89%
    21:00 -29°C° 0 mm 3 mps 585 mmHg 89%
    22:00 -28°C° 0 mm 2 mps 585 mmHg 89%
    23:00 -28°C° 0 mm 2 mps 585 mmHg 88%

    26 February, Monday

    Time Temperature Precipitation Wind Pressure Humidity
    00:00 -28°C° 0 mm 2 mps 585 mmHg 88%
    01:00 -29°C° 0 mm 2 mps 585 mmHg 87%
    02:00 -29°C° 0 mm 2 mps 585 mmHg 87%
    03:00 -28°C° 0 mm 2 mps 585 mmHg 88%
    04:00 -28°C° 0 mm 2 mps 585 mmHg 88%
    05:00 -28°C° 0 mm 2 mps 585 mmHg 88%
    06:00 -28°C° 0 mm 2 mps 585 mmHg 89%
    07:00 -27°C° 0 mm 2 mps 585 mmHg 89%
    08:00 -26°C° 0 mm 2 mps 585 mmHg 88%
    09:00 -24°C° 0 mm 2 mps 586 mmHg 87%
    10:00 -23°C° 0 mm 2 mps 586 mmHg 86%
    11:00 -23°C° 0.1 mm 3 mps 586 mmHg 83%
    12:00 -23°C° 0.1 mm 4 mps 586 mmHg 79%
    13:00 -22°C° 0.1 mm 5 mps 586 mmHg 75%
    14:00 -24°C° 0.1 mm 5 mps 586 mmHg 76%
    15:00 -24°C° 0.1 mm 5 mps 586 mmHg 77%
    16:00 -25°C° 0.1 mm 5 mps 586 mmHg 79%
    17:00 -26°C° 0 mm 4 mps 586 mmHg 83%
    18:00 -27°C° 0 mm 3 mps 586 mmHg 87%
    19:00 -28°C° 0 mm 2 mps 586 mmHg 92%
    20:00 -28°C° 0 mm 2 mps 586 mmHg 93%
    21:00 -27°C° 0 mm 1 mps 586 mmHg 95%
    22:00 -28°C° 0 mm 1 mps 586 mmHg 96%
    23:00 -28°C° 0 mm 1 mps 586 mmHg 96%
    Show more